Lapse_Rate
6.1 6.1 6.1 6.1 6.0 5.8 5.6 5.5 5.5 5.5 5.6 5.6 5.8 5.6 5.6 5.5 5.3 5.1 5.1 5.1 5.5 5.6 5.7 5.6 5.8 4.9 5.0 5.4 5.2 5.4 5.7 5.2 6.3 6.6 6.4 6.5 6.4 6.2 6.2 6.0 6.0 5.7 5.8 5.3 4.6
6.2 6.1 6.1 6.1 6.0 6.0 5.8 5.8 5.8 5.8 5.6 5.6 5.6 5.7 5.5 5.6 5.5 5.3 5.1 5.1 5.4 5.3 5.9 5.8 5.2 5.2 5.4 5.6 5.8 5.5 5.5 5.3 6.3 6.4 6.4 6.4 6.2 6.1 6.1 6.1 5.7 5.5 5.3 5.5 4.4
6.4 6.4 6.2 6.1 6.0 5.9 5.7 5.8 5.9 6.0 6.0 5.8 5.7 5.5 5.6 5.4 5.5 5.5 5.4 5.3 5.3 5.6 5.8 5.7 5.4 5.3 5.1 5.8 6.1 6.3 5.7 6.3 6.6 6.6 6.5 6.3 6.2 6.2 6.2 6.1 5.6 5.1 6.0 5.2 4.5
6.6 6.5 6.4 6.3 6.2 6.2 6.0 6.0 6.0 6.1 6.1 6.0 5.9 5.8 5.6 5.6 5.3 5.3 5.5 5.4 5.4 5.9 6.1 6.0 5.9 5.8 5.8 5.8 6.1 6.5 6.5 6.5 6.8 6.4 6.2 6.2 6.3 5.8 6.2 6.1 5.6 4.9 5.6 5.0 4.6
6.5 6.6 6.5 6.4 6.5 6.4 6.2 6.1 6.2 6.3 6.3 6.2 6.2 6.1 5.9 5.7 5.6 5.4 5.5 5.7 5.7 6.1 6.7 6.0 5.8 5.9 6.1 6.0 6.0 6.5 6.6 6.5 6.7 6.1 6.2 6.1 6.2 6.0 5.9 5.8 5.6 5.1 4.9 4.9 4.9
6.3 6.4 6.4 6.3 6.4 6.4 6.3 6.4 6.3 6.3 6.6 6.5 6.3 6.2 6.1 6.1 5.6 5.4 5.7 5.7 5.8 5.9 6.5 6.1 6.0 6.4 6.5 6.4 5.9 6.0 6.6 6.6 6.4 6.1 6.0 5.9 5.7 5.6 5.7 5.7 5.5 5.5 4.9 4.9 5.2
6.2 6.2 6.2 6.3 6.3 6.3 6.3 6.3 6.4 6.5 6.6 6.7 6.5 6.3 6.2 6.1 6.1 5.5 5.8 5.8 5.9 5.9 6.0 6.5 6.6 6.5 6.8 6.9 6.9 6.4 6.8 6.8 6.8 6.6 6.3 6.0 5.6 5.7 5.5 5.7 5.5 6.2 5.2 5.1 5.3
6.4 6.3 6.3 6.3 6.3 6.3 6.3 6.3 6.4 6.5 6.5 6.5 6.5 6.4 6.3 6.3 6.4 6.6 6.2 5.5 5.9 5.7 5.5 5.9 6.5 6.6 6.6 6.8 7.0 7.1 7.2 7.6 6.0 7.1 6.3 6.5 5.6 5.3 5.4 5.7 6.1 6.0 5.5 5.4 5.2
6.7 6.7 6.7 6.6 6.6 6.5 6.5 6.6 6.6 6.6 6.5 6.4 6.3 6.3 5.7 6.4 6.2 6.4 6.4 5.7 5.7 5.6 5.7 5.6 6.0 6.6 7.0 7.2 6.8 7.7 8.0 6.7 6.8 7.2 7.0 6.9 6.0 5.6 5.7 5.7 6.2 5.8 5.6 5.5 5.2
6.8 6.8 6.8 6.8 6.8 6.8 6.8 6.7 6.6 6.5 6.5 6.2 6.2 6.4 5.8 5.8 5.7 6.5 6.4 5.9 6.0 6.0 5.8 5.7 6.0 6.3 7.1 7.6 8.0 7.9 8.4 7.4 7.5 7.4 6.7 7.3 6.8 6.6 6.1 5.6 5.9 5.8 5.8 5.7 5.3
6.8 6.9 6.9 6.9 6.8 6.8 6.8 6.5 6.1 6.1 6.4 5.9 5.6 5.7 5.6 5.6 6.0 6.6 6.5 5.8 5.8 6.0 6.1 6.3 6.4 6.6 7.3 7.9 8.2 8.6 8.0 7.9 7.7 6.8 7.4 8.0 7.0 6.4 5.9 6.0 5.6 5.6 5.6 5.8 5.5
6.9 6.8 6.8 6.8 6.9 6.8 6.6 6.5 6.3 6.1 6.1 5.6 5.5 5.6 5.5 5.4 6.0 5.9 6.1 6.0 6.0 6.0 6.4 6.6 6.4 6.9 7.4 7.8 8.4 8.6 7.9 8.2 7.9 8.0 8.3 8.5 7.5 7.2 6.4 6.7 6.1 5.6 5.9 5.7 5.8
6.8 6.7 6.8 6.9 6.8 6.8 6.7 6.4 6.1 6.0 5.5 5.8 5.8 5.8 5.7 5.8 5.7 6.1 6.2 6.2 6.2 6.3 6.6 6.8 7.2 7.4 7.5 7.8 8.5 9.3 9.0 8.7 8.9 8.7 8.4 8.6 8.1 7.8 7.2 6.9 6.3 5.7 5.8 5.9 5.8
6.8 6.8 6.7 6.8 6.8 6.5 6.0 6.3 6.0 5.8 5.4 6.1 5.7 5.7 5.9 6.1 6.3 6.3 6.2 6.4 6.5 6.5 6.9 6.9 7.3 7.7 7.9 7.9 9.0 9.4 9.5 9.0 8.8 8.2 8.7 8.8 9.2 9.2 8.4 7.4 6.5 6.0 5.5 5.8 6.0
6.8 6.9 6.8 6.7 6.6 6.0 6.3 6.1 6.0 5.7 7.7 6.8 6.7 6.2 6.1 6.4 6.8 6.9 6.5 6.5 6.6 6.8 7.1 6.9 7.3 7.7 7.8 8.5 8.8 9.4 9.5 9.3 8.9 8.3 9.2 9.2 9.0 9.1 8.6 7.8 6.8 6.1 5.9 5.8 5.8
6.8 6.9 6.8 6.7 6.6 6.3 6.4 6.3 6.1 6.2 7.5 7.4 7.2 7.0 6.9 7.0 7.2 7.3 6.8 6.8 6.7 6.8 7.1 7.0 7.7 7.8 7.8 9.4 9.3 9.6 9.3 9.4 9.0 9.0 9.2 9.5 9.4 8.9 8.7 8.2 7.5 6.7 6.2 5.9 5.7
6.8 6.8 6.7 6.6 6.1 6.4 6.3 5.7 6.5 7.8 7.6 7.8 7.4 7.2 7.2 7.3 8.0 8.1 7.9 8.2 7.6 7.3 7.0 7.3 7.4 7.7 8.4 9.6 9.6 9.6 9.5 9.5 9.2 9.1 9.5 9.6 9.6 9.5 8.4 7.8 8.0 7.5 7.0 6.7 5.9
6.7 6.7 6.6 6.5 6.4 6.3 6.5 6.0 7.3 7.6 7.6 7.4 7.3 7.4 7.4 8.2 9.3 8.8 9.3 9.5 8.9 8.9 8.2 8.4 8.0 7.7 8.0 9.1 9.6 9.6 9.6 9.7 9.2 9.4 9.7 9.4 9.6 9.7 9.3 9.0 8.5 8.1 7.3 7.2 6.5
6.7 6.7 6.7 5.9 6.2 6.4 5.8 6.9 7.6 7.3 7.1 7.1 7.4 8.1 8.7 9.2 9.0 9.2 9.4 9.7 9.6 9.7 9.5 8.7 8.4 8.9 9.1 9.0 9.7 9.5 9.6 9.3 9.6 9.7 9.7 9.8 9.6 9.2 9.4 9.0 9.0 8.6 7.8 7.4 6.7
6.6 6.8 5.7 6.1 6.0 5.6 6.1 6.9 7.2 6.8 6.7 7.0 7.4 7.9 8.1 8.7 9.0 9.6 9.5 9.3 8.8 8.9 9.2 9.5 9.1 9.3 9.6 9.6 9.7 9.6 9.4 9.6 9.6 9.3 9.3 9.2 10.1 9.4 9.5 9.1 9.0 9.0 8.3 7.5 7.6
6.3 5.8 6.0 6.1 6.0 6.0 6.8 7.6 7.2 6.8 6.5 6.9 7.3 7.4 7.7 8.1 8.5 9.1 9.5 8.5 8.6 8.1 8.5 9.3 9.3 9.2 9.5 9.6 9.6 9.6 9.3 9.4 9.6 9.6 9.9 9.4 9.7 9.2 9.2 8.9 9.4 9.3 8.8 8.2 7.6
6.4 6.0 6.1 6.4 6.2 6.8 7.2 7.3 7.1 7.2 7.0 6.9 7.0 7.2 7.4 7.6 8.0 8.5 8.8 8.4 7.7 8.1 8.4 8.8 9.0 9.4 9.6 9.6 9.7 9.7 9.6 9.4 9.5 9.6 9.6 9.6 9.6 9.6 9.3 9.2 9.2 9.0 9.2 9.1 8.6
6.1 6.5 6.3 6.3 6.8 8.0 7.4 7.3 7.1 7.2 7.3 7.0 7.0 7.1 7.3 7.5 7.8 8.3 8.3 9.0 8.2 8.3 8.3 8.0 8.6 9.2 9.4 9.4 9.4 9.7 9.6 9.6 9.6 9.5 9.7 9.7 9.2 9.2 7.7 8.8 8.7 9.1 8.7 8.7 8.6
6.3 6.8 6.6 6.7 6.8 7.2 7.5 7.6 7.8 7.0 6.9 7.1 6.9 7.0 7.2 7.7 7.9 8.0 8.5 8.8 9.1 8.3 8.4 8.2 8.2 8.4 9.1 9.4 9.5 9.7 9.7 9.7 9.6 9.7 9.6 9.6 9.2 9.3 9.2 8.5 8.0 7.7 7.7 8.3 8.8
6.0 6.6 6.5 7.2 7.1 6.9 7.1 7.2 7.7 7.9 7.4 7.0 7.0 7.2 7.4 7.5 7.7 7.9 8.5 9.1 9.2 8.6 8.4 8.7 8.7 8.8 8.6 8.6 8.8 8.9 9.8 9.7 9.7 9.6 9.7 9.6 9.6 9.7 9.3 8.1 8.1 7.3 7.6 8.6 8.4
5.9 5.8 6.3 6.6 6.7 6.8 7.1 7.3 7.4 7.6 7.3 7.2 7.2 7.3 7.2 7.5 7.7 7.8 7.9 8.4 8.4 8.3 8.0 8.5 8.8 9.0 8.4 8.3 8.9 9.5 9.5 9.8 9.6 9.6 9.4 9.4 9.6 9.0 9.1 8.2 8.3 6.2 8.0 8.4 8.5
5.6 5.8 5.8 6.5 6.9 7.2 7.3 7.3 7.2 7.2 7.2 6.9 7.0 6.9 7.1 7.3 7.2 7.1 7.3 7.4 7.7 7.7 7.9 8.2 8.2 8.4 8.4 8.3 8.8 9.7 9.5 9.6 9.7 9.7 9.6 9.5 9.2 8.6 8.7 7.6 6.8 7.3 8.5 8.7 8.5
Wind_Speed
19 19 19 20 20 21 20 20 20 21 20 21 20 19 19 18 25 7 10 4 6 20 4 9 10 8 10 7 6 12 4 7 5 2 10 11 15 13 13 13 10 19 22 21 19
20 20 20 19 20 20 20 20 20 20 21 20 20 19 19 19 10 15 3 13 26 19 9 11 8 6 4 4 4 2 4 10 8 9 13 8 16 16 11 12 11 21 23 21 19
20 20 20 20 20 20 20 21 21 21 20 21 19 20 19 17 11 8 4 17 22 21 8 7 9 5 8 6 3 5 3 11 13 10 13 15 15 6 9 16 17 21 22 21 19
19 20 20 20 21 21 22 22 22 22 22 20 19 19 20 5 3 7 12 15 17 16 9 7 5 6 3 7 4 5 4 13 13 8 12 13 3 17 4 16 18 20 20 20 19
18 19 20 21 20 20 21 21 22 22 21 19 16 15 9 8 18 10 13 14 12 13 15 13 8 9 6 10 5 3 8 2 10 11 11 9 10 11 8 13 19 20 19 18 17
19 19 19 21 21 21 21 21 22 20 18 16 13 12 7 13 5 17 11 12 12 15 16 15 14 9 6 13 6 8 14 5 4 14 9 11 11 9 10 14 20 19 18 17 17
20 20 20 21 21 21 20 21 22 20 18 13 9 6 9 13 4 6 8 10 14 16 17 15 14 14 13 11 8 4 16 14 13 12 9 12 5 11 13 16 19 17 16 17 17
21 21 22 22 21 21 21 21 21 18 15 9 5 8 7 3 9 7 12 12 13 17 17 19 10 11 13 12 13 16 10 6 10 9 7 9 5 12 16 17 18 17 16 16 16
22 22 22 22 23 22 22 22 19 15 12 7 5 8 10 1 8 14 13 15 14 16 13 12 11 14 17 16 9 10 6 4 1 15 10 9 9 3 17 17 17 15 16 15 16
22 23 24 24 25 23 26 16 5 12 10 9 10 9 8 3 6 7 11 14 13 13 14 14 14 15 15 14 11 11 14 14 8 9 16 11 13 19 20 20 19 18 18 16 17
22 23 23 25 26 21 14 5 4 6 11 12 9 9 11 2 2 8 11 12 15 17 18 17 15 18 20 19 20 5 14 18 16 11 14 11 18 19 20 20 20 20 19 18 18
23 23 23 23 25 22 8 7 8 8 9 13 8 7 6 7 11 10 11 14 16 18 19 18 21 22 22 22 22 15 15 21 6 12 12 6 4 21 23 19 23 21 20 20 19
23 23 22 22 24 10 8 8 7 9 6 5 4 5 4 5 8 12 11 15 18 20 23 22 22 23 24 22 23 23 18 20 16 8 8 11 15 25 21 20 21 20 18 20 21
24 24 22 24 5 4 1 8 8 5 5 7 6 6 8 4 9 4 14 15 17 23 23 25 23 26 23 22 23 22 16 18 7 8 10 17 11 15 19 18 24 22 21 19 21
25 23 20 7 11 6 8 9 8 7 2 5 3 3 5 6 12 9 0 17 17 20 22 24 27 25 27 23 24 22 23 19 12 13 11 13 10 15 21 20 24 24 25 24 19
25 22 18 5 6 6 9 9 7 6 3 4 3 8 12 13 13 4 11 9 18 18 25 25 26 27 27 26 22 23 23 15 12 18 11 21 14 17 18 21 23 27 27 26 24
25 22 9 11 8 10 8 7 6 3 4 5 14 11 13 14 13 10 13 14 13 16 20 23 29 28 27 27 25 23 21 14 13 12 14 19 18 7 4 10 18 19 26 25 18
25 19 11 9 11 7 7 9 8 7 5 12 11 14 13 13 8 9 18 11 17 19 19 19 22 28 28 28 25 25 23 16 17 15 16 20 17 12 19 19 17 23 24 26 24
26 7 8 7 4 4 8 10 6 6 7 9 13 12 8 9 3 14 15 16 19 18 20 21 30 23 28 30 25 26 22 23 26 22 15 14 20 16 13 14 13 20 21 25 29
5 9 12 2 7 6 9 12 3 3 7 11 11 8 11 15 17 9 19 15 24 24 25 14 24 31 25 28 30 27 18 20 16 21 15 21 10 12 14 12 14 13 20 21 19
5 6 9 4 5 7 10 5 1 4 5 8 12 11 12 12 16 18 17 8 14 23 26 21 19 24 24 24 27 17 20 23 18 19 16 15 14 19 14 14 13 14 19 22 21
10 9 8 4 7 7 3 4 4 9 3 3 7 11 9 13 14 16 21 4 11 16 20 20 16 16 22 22 22 28 24 26 16 19 16 15 15 10 15 14 9 13 13 17 20
6 7 7 4 8 9 8 3 3 7 8 7 9 12 11 11 15 15 17 7 1 11 12 12 9 13 18 21 25 29 25 24 25 22 19 16 16 23 5 1 7 6 11 4 1
5 4 5 5 4 7 9 4 5 8 4 3 9 12 12 12 11 15 18 21 1 18 2 5 15 19 17 18 16 22 25 26 23 17 16 17 23 11 18 12 2 10 6 4 14
4 5 5 6 6 8 7 11 8 8 4 5 10 12 8 10 13 16 19 18 18 5 10 13 15 19 25 30 27 25 19 21 22 21 19 20 21 14 14 12 11 13 16 18 18
5 7 9 10 1 7 5 9 3 9 7 10 11 11 11 12 14 15 16 17 17 16 17 18 13 16 24 25 24 25 26 22 24 24 23 24 22 11 15 24 17 17 14 14 15
7 11 6 10 10 6 3 10 5 8 7 1 8 10 11 11 15 15 16 17 18 18 18 17 13 14 18 22 20 22 23 20 18 24 25 22 13 17 17 16 15 12 10 12 13
Wind_Direction
346 346 345 341 339 337 338 337 334 332 329 326 325 323 322 324 308 244 270 79 177 175 213 186 225 197 233 274 285 288 60 331 306 94 140 92 98 79 86 123 106 96 142 132 142
344 343 341 339 336 334 334 332 329 327 324 322 321 322 323 326 291 272 81 139 143 163 204 213 209 214 252 256 279 240 118 235 130 234 106 105 104 127 112 120 123 119 118 140 140
342 340 339 336 335 332 331 328 325 322 317 315 318 318 320 320 283 251 130 147 152 180 213 264 280 3 314 236 260 258 210 197 130 114 116 135 114 39 129 128 127 132 138 146 150
340 338 337 334 332 331 329 325 321 317 311 311 313 316 313 278 271 70 146 163 174 197 190 256 259 18 302 273 220 297 187 56 313 126 90 89 63 100 52 116 132 138 148 149 158
337 335 333 330 329 326 323 319 317 311 306 307 307 316 308 230 253 135 145 162 191 216 229 227 262 168 260 294 217 256 258 204 137 104 105 126 88 90 98 119 133 139 156 157 160
334 331 329 327 326 323 320 318 313 307 306 303 297 305 249 250 45 139 155 168 204 207 239 253 249 270 283 258 214 216 275 193 197 141 150 120 132 99 126 134 139 147 163 167 157
331 329 327 326 323 319 319 318 315 315 311 294 286 278 267 247 355 311 185 198 218 208 246 248 262 290 293 329 137 182 248 202 164 157 153 93 53 147 147 147 143 159 170 171 161
330 329 327 325 321 318 317 316 315 312 315 303 276 258 262 48 351 298 274 216 213 236 243 276 301 293 284 287 281 214 201 211 340 188 166 150 174 227 160 157 150 185 174 169 168
330 330 328 322 318 317 316 312 299 292 296 271 246 232 265 133 236 238 248 245 216 227 247 273 288 267 269 250 262 254 130 151 225 303 178 183 118 250 170 166 166 200 177 169 172
332 329 325 321 316 322 317 283 258 303 238 235 254 263 260 330 14 329 237 255 256 224 234 237 246 256 248 254 246 249 241 193 172 224 227 179 181 187 178 183 173 204 181 180 173
330 326 322 319 316 326 331 282 239 197 232 282 312 286 310 237 263 247 271 229 245 255 232 227 234 236 240 234 253 153 306 255 193 208 250 219 154 176 184 194 175 198 183 188 179
328 324 320 317 315 319 291 319 28 332 307 302 289 272 253 315 288 279 218 228 222 236 233 237 227 238 243 252 249 216 247 267 207 188 231 203 101 190 180 186 175 192 186 192 183
325 322 320 319 319 293 267 15 324 329 279 158 4 296 14 290 282 271 239 223 233 230 241 234 236 226 245 246 254 256 221 264 192 145 234 234 205 214 180 178 175 191 198 195 188
327 324 324 323 307 339 342 357 325 346 275 149 169 99 291 284 251 294 248 237 237 247 234 249 241 253 220 245 247 253 231 240 158 209 252 217 244 214 170 173 174 189 194 206 193
327 324 321 312 309 321 343 318 347 275 220 90 47 311 248 237 296 314 90 255 239 255 243 246 244 243 251 227 245 251 262 244 273 216 246 218 232 203 181 178 177 186 189 199 198
325 321 326 216 230 355 320 315 279 240 85 326 325 357 309 312 309 245 249 226 266 266 260 252 257 247 247 252 229 254 258 255 263 275 262 257 220 286 181 192 186 187 185 189 196
324 317 304 309 330 336 319 283 246 287 57 21 343 317 314 300 288 344 301 250 237 245 252 255 250 254 255 245 243 227 245 246 217 249 246 248 245 178 158 158 183 184 176 182 186
322 313 249 259 279 338 295 268 265 61 348 353 319 310 279 288 289 310 297 271 272 250 262 251 243 241 244 246 240 231 229 242 235 222 229 228 244 240 181 176 188 178 174 179 191
320 256 245 227 313 280 286 268 23 27 5 328 312 295 344 308 34 320 282 277 283 266 243 256 266 242 229 245 229 240 228 233 253 256 266 251 213 219 202 167 176 176 168 180 185
296 272 247 122 281 270 270 269 50 13 342 309 299 340 331 321 321 323 303 15 352 346 331 290 256 267 254 223 242 232 242 222 240 254 248 273 234 243 154 180 195 172 164 176 185
250 251 118 216 261 259 262 57 16 86 349 327 330 318 314 316 312 306 301 45 326 323 323 308 297 257 262 245 221 212 234 251 252 236 253 244 260 194 161 216 190 185 173 173 178
279 268 113 254 259 233 350 48 357 283 299 291 303 295 312 318 314 308 301 23 326 298 307 315 316 290 257 264 251 229 219 236 246 236 247 261 262 178 168 168 86 211 165 175 179
276 285 118 256 268 306 99 295 188 304 339 330 305 304 316 304 292 290 285 262 287 295 352 346 296 286 272 272 269 218 217 228 237 247 227 246 247 101 2 37 125 129 124 114 197
280 277 174 198 280 281 329 276 244 159 244 302 294 298 283 280 305 300 289 285 149 317 62 289 270 264 272 268 282 199 216 232 239 240 239 246 254 140 148 160 269 86 69 105 39
252 7 15 298 42 346 317 312 303 282 155 305 284 292 315 319 306 300 304 312 317 174 268 270 277 277 280 280 289 295 222 229 249 257 248 247 242 243 132 69 114 112 58 57 50
333 347 348 282 250 295 234 280 300 311 341 309 312 329 327 298 293 305 313 303 305 317 303 298 292 304 295 276 276 276 278 223 224 246 255 261 265 3 104 103 88 53 58 53 50
14 331 284 297 269 259 10 346 332 334 290 312 312 312 299 334 342 318 299 287 283 280 279 288 291 286 277 281 276 263 264 270 231 219 241 248 260 76 64 68 85 79 53 50 47